Location: Robert Brownlee Observatory
(34.2308°N, 117.2089°W)
Time: 06:39:28
(UTC-08:00)

Cosmos 1943 - Visible Passes

Search period start: 10 December 2016 00:00
Search period end: 20 December 2016 00:00
Orbit: 833 x 851 km, 71.0° (Epoch: 09 December)

Date Brightness Start Highest point End Pass type
(mag) Time Alt. Az. Time Alt. Az. Time Alt. Az.
10 Dec 4.5 03:49:01 17° SSE 03:52:41 36° ESE 03:57:46 10° NE visible
10 Dec 4.0 05:32:04 10° WSW 05:36:44 27° WNW 05:41:27 10° N visible
11 Dec 4.8 03:39:04 30° ENE 03:39:04 30° ENE 03:42:45 10° NE visible
11 Dec 4.0 05:21:04 27° WNW 05:21:44 28° WNW 05:26:33 10° N visible
12 Dec 5.6 03:26:29 16° NE 03:26:29 16° NE 03:27:42 10° NE visible
12 Dec 4.3 05:08:25 25° NNW 05:08:25 25° NNW 05:11:38 10° N visible
13 Dec 4.9 04:55:06 18° N 04:55:06 18° N 04:56:44 10° N visible
14 Dec 5.4 04:41:25 12° N 04:41:25 12° N 04:41:49 10° N visible
